Regional Weather Roundup
Issued by NWS Jackson, KY

Home | Current Version | Previous Version | Graphics & Text | Print | Product List | Glossary On
Versions: 1 2 3 4 5 6 7 8 9 10 11 12 13 14 15 16 17 18 19 20 21 22 23 24 25 26 27
000
ASUS43 KJKL 271010
RWRJKL

EAST KENTUCKY HOURLY WEATHER ROUNDUP
NATIONAL WEATHER SERVICE JACKSON KY
600 AM EDT THU APR 27 2017

NOTE: "FAIR" INDICATES FEW OR NO CLOUDS BELOW 12,000 FEET WITH
NO SIGNIFICANT WEATHER AND/OR OBSTRUCTIONS TO VISIBILITY.

* THESE REPORTS ARE NOT UNDER NWS QUALITY CONTROL AND MAY NOT
  REPORT WEATHER SUCH AS PRECIPITATION AND FOG.

KYZ079-080-083-085-087-088-110-112-115-119-120-271100
...EASTERN KENTUCKY...

CITY           SKY/WX    TMP DP  RH WIND       PRES   REMARKS
JACKSON        CLOUDY    65  56  72 VRB5      29.70S
LONDON         CLOUDY    69  52  54 S8        29.69S
SOMERSET*      RAIN      68  54  60 S13G18    29.69F
MONTICELLO*    RAIN      64  59  83 SE15      29.65F
WILLIAMSBURG*  CLOUDY    68  54  60 S13       29.69S
MIDDLESBORO*   CLOUDY    69  54  57 S9G20     29.72S
HARLAN APT*    CLOUDY    64  54  68 CALM      29.76R
PIKE CO APT*     N/A     66  53  63 CALM      29.72R
BIG SANDY APT* MOSUNNY   65  54  68 S3        29.70R
MOREHEAD APT*  PTSUNNY   68  54  60 S7        29.68R
$$

KYZ035-036-041-042-044-050-067-078-099-271100
...CENTRAL KENTUCKY...

CITY           SKY/WX    TMP DP  RH WIND       PRES   REMARKS
MT STERLING*   CLOUDY    68  55  64 SW10G16   29.68R
FLEMING/MASON* CLOUDY    67  56  67 S10       29.66R
DANVILLE*      RAIN      64  57  77 S3        29.63F
LEXINGTON      CLOUDY    68  57  68 SW7       29.63S
FRANKFORT      LGT RAIN  65  54  67 S7        29.60F
LOUISVILLE     CLOUDY    65  58  78 S12       29.56F
LEBANON*         N/A     59  57  94 E8        29.59F
GLASGOW*       CLOUDY   N/A N/A N/A S3        29.59R
BOWLING GREEN  CLOUDY    63  62  97 SW8       29.60R
$$

KYZ091>093-OHZ055-061-077-WVZ005-015-034-035-042-271100
...SOUTHERN OHIO/WEST VIRGINIA...

CITY           SKY/WX    TMP DP  RH WIND       PRES   REMARKS
COVINGTON      CLOUDY    64  52  64 SE12      29.57F
COLUMBUS       CLOUDY    66  53  63 SE5       29.62S
DAYTON         CLOUDY    65  54  67 SW16      29.57S
WILMINGTON     CLOUDY    68  57  68 S14       29.60S
HUNTINGTON     PTCLDY    62  54  74 SW3       29.68R
CHARLESTON     CLOUDY    56  54  93 SE3       29.67S
PINEVILLE*     CLOUDY    53  52  96 MISG      29.78F
BECKLEY        CLEAR     60  53  77 SE6       29.78S
BLUEFIELD      CLEAR     62  51  67 SW8       29.80S
LOGAN CO APT*    N/A     68  54  60 S9        29.70S
$$

VAZ002-007-008-TNZ017-027-036-066-071-271100
...SOUTHWEST VIRGINIA/EAST TENNESSEE...

CITY           SKY/WX    TMP DP  RH WIND       PRES   REMARKS
WISE*          CLOUDY    61  52  72 S8        29.78R
JONESVILLE*      N/A     55  54  94 CALM      29.78R
ABINGDON*      PTCLDY    62  55  78 S5        29.77S
BRISTOL        CLOUDY    66  53  63 S3        29.74R
MORRISTOWN*    SUNNY     57  55  94 SE3       29.74R
SEVIERVILLE*   SUNNY     61  54  77 NE5       29.71F
KNOXVILLE      CLOUDY    65  55  70 SW8       29.70F
LAFOLLETTE*    SUNNY     70  55  60 S12       29.73F
OAK RIDGE      CLOUDY    69  54  58 VRB3      29.71F
CROSSVILLE     LGT RAIN  60  57  89 SE9       29.70F FOG
NASHVILLE      CLOUDY    65  63  93 SW7       29.61S
$$

...KEY TO REMARKS...
VSB - VISIBILITY IN MILES
WCI - WIND CHILL INDEX
HX  - HEAT INDEX

$$




USA.gov is the U.S. government's official web portal to all federal, state and local government web resources and services.